| time (UTC) | temp F | wind direction | speed MPH | gust MPH | rain 1hr in | rain 24hr in | rain mn in | humidity % | barometer mb |
| 20260506221542 | 43 | 0 | 0.0 | 0.0 | 0.00 | 0.48 | 0.47 | 97 | 1008.5 |
| 20260506220049 | 44 | 0 | 0.0 | 0.0 | 0.00 | 0.48 | 0.47 | 97 | 1008.5 |
| 20260506214544 | 44 | 0 | 0.0 | 0.0 | 0.01 | 0.48 | 0.47 | 97 | 1008.4 |
| 20260506213042 | 44 | 0 | 0.0 | 0.0 | 0.01 | 0.48 | 0.47 | 97 | 1008.0 |
| 20260506211542 | 44 | 0 | 0.0 | 0.0 | 0.01 | 0.48 | 0.47 | 97 | 1007.7 |
| 20260506210040 | 45 | 0 | 0.0 | 0.0 | 0.02 | 0.48 | 0.47 | 96 | 1007.4 |
| 20260506204549 | 46 | 0 | 0.0 | 0.0 | 0.02 | 0.56 | 0.46 | 97 | 1007.2 |
| 20260506203045 | 46 | 0 | 0.0 | 0.0 | 0.03 | 0.56 | 0.46 | 97 | 1006.7 |
| 20260506201545 | 46 | 0 | 0.0 | 0.0 | 0.04 | 0.56 | 0.46 | 97 | 1006.5 |
| 20260506200057 | 47 | 0 | 0.0 | 0.0 | 0.03 | 0.55 | 0.45 | 97 | 1006.6 |
| 20260506194542 | 47 | 0 | 0.0 | 0.0 | 0.02 | 0.54 | 0.44 | 97 | 1006.6 |
| 20260506193043 | 47 | 0 | 0.0 | 0.0 | 0.01 | 0.52 | 0.43 | 96 | 1006.7 |
| 20260506191536 | 48 | 0 | 0.0 | 0.0 | 0.00 | 0.52 | 0.42 | 96 | 1006.4 |
| 20260506190042 | 49 | 0 | 0.0 | 0.0 | 0.00 | 0.52 | 0.42 | 96 | 1006.1 |
| 20260506184541 | 50 | 0 | 0.0 | 0.0 | 0.00 | 0.52 | 0.42 | 95 | 1005.9 |
| 20260506183045 | 53 | 0 | 0.0 | 0.0 | 0.00 | 0.52 | 0.42 | 95 | 1005.8 |
| 20260506181552 | 55 | 0 | 0.0 | 0.0 | 0.00 | 0.52 | 0.42 | 97 | 1005.7 |
| 20260506180044 | 55 | 0 | 0.0 | 0.0 | 0.00 | 0.52 | 0.42 | 97 | 1005.7 |
| 20260506174543 | 55 | 0 | 0.0 | 0.0 | 0.00 | 0.52 | 0.42 | 97 | 1005.6 |
| 20260506173049 | 55 | 0 | 0.0 | 0.0 | 0.01 | 0.52 | 0.42 | 97 | 1005.4 |
| 20260506171544 | 55 | 0 | 0.0 | 0.0 | 0.02 | 0.52 | 0.42 | 97 | 1005.8 |
| 20260506170049 | 55 | 0 | 0.0 | 0.0 | 0.02 | 0.52 | 0.42 | 97 | 1005.9 |
| 20260506164550 | 55 | 0 | 0.0 | 0.0 | 0.03 | 0.52 | 0.42 | 97 | 1005.8 |
| 20260506163043 | 54 | 0 | 0.0 | 0.0 | 0.04 | 0.51 | 0.41 | 97 | 1005.8 |
| 20260506161550 | 54 | 0 | 0.0 | 0.0 | 0.04 | 0.50 | 0.40 | 97 | 1005.9 |
| 20260506160045 | 54 | 0 | 0.0 | 0.0 | 0.05 | 0.50 | 0.40 | 97 | 1006.1 |
| 20260506154548 | 54 | 0 | 0.0 | 0.0 | 0.05 | 0.49 | 0.39 | 96 | 1005.9 |
| 20260506153043 | 54 | 0 | 0.0 | 0.0 | 0.05 | 0.47 | 0.37 | 96 | 1006.0 |
| 20260506151600 | 54 | 0 | 0.0 | 0.0 | 0.05 | 0.46 | 0.36 | 96 | 1006.2 |
| 20260506150044 | 53 | 0 | 0.0 | 0.0 | 0.06 | 0.45 | 0.35 | 96 | 1005.9 |
| 20260506144539 | 53 | 0 | 0.0 | 0.0 | 0.07 | 0.43 | 0.33 | 96 | 1005.9 |
| 20260506143045 | 53 | 0 | 0.0 | 0.0 | 0.08 | 0.42 | 0.32 | 96 | 1005.9 |
| 20260506141537 | 53 | 0 | 0.0 | 0.0 | 0.10 | 0.41 | 0.31 | 96 | 1005.7 |
| 20260506140045 | 52 | 0 | 0.0 | 0.0 | 0.11 | 0.39 | 0.29 | 96 | 1005.9 |
| 20260506134544 | 52 | 0 | 0.0 | 0.0 | 0.11 | 0.36 | 0.26 | 96 | 1006.2 |
| 20260506133040 | 53 | 0 | 0.0 | 0.0 | 0.12 | 0.34 | 0.24 | 96 | 1006.7 |
| 20260506131537 | 53 | 0 | 0.0 | 0.0 | 0.11 | 0.31 | 0.21 | 96 | 1007.0 |
| 20260506130053 | 53 | 0 | 0.0 | 0.0 | 0.09 | 0.28 | 0.18 | 95 | 1007.4 |
| 20260506124536 | 53 | 0 | 0.0 | 0.0 | 0.07 | 0.25 | 0.15 | 95 | 1007.0 |
| 20260506123043 | 53 | 0 | 0.0 | 0.0 | 0.04 | 0.22 | 0.12 | 95 | 1006.9 |
| 20260506121541 | 53 | 0 | 0.0 | 0.0 | 0.03 | 0.20 | 0.10 | 95 | 1006.8 |
| 20260506120045 | 53 | 0 | 0.0 | 0.0 | 0.02 | 0.19 | 0.09 | 95 | 1006.9 |
| 20260506114546 | 53 | 0 | 0.0 | 0.0 | 0.02 | 0.18 | 0.08 | 95 | 1006.9 |
| 20260506113040 | 52 | 0 | 0.0 | 0.0 | 0.04 | 0.18 | 0.08 | 94 | 1006.9 |
| 20260506111543 | 52 | 0 | 0.0 | 0.0 | 0.05 | 0.17 | 0.07 | 94 | 1007.0 |
| 20260506110056 | 52 | 0 | 0.0 | 0.0 | 0.06 | 0.17 | 0.07 | 94 | 1007.2 |
| 20260506104537 | 53 | 0 | 0.0 | 0.0 | 0.05 | 0.16 | 0.06 | 93 | 1007.2 |
| 20260506103048 | 53 | 0 | 0.0 | 0.0 | 0.04 | 0.14 | 0.04 | 93 | 1007.0 |
| 20260506101553 | 53 | 0 | 0.0 | 0.0 | 0.02 | 0.12 | 0.02 | 93 | 1006.9 |
| 20260506100042 | 53 | 0 | 0.0 | 0.0 | 0.01 | 0.11 | 0.01 | 93 | 1006.8 |
| 20260506094547 | 53 | 0 | 0.0 | 0.0 | 0.01 | 0.11 | 0.01 | 92 | 1006.5 |
| 20260506093047 | 53 | 0 | 0.0 | 0.0 | 0.00 | 0.10 | 0.00 | 93 | 1006.5 |
| 20260506091536 | 53 | 0 | 0.0 | 0.0 | 0.00 | 0.10 | 0.00 | 92 | 1006.6 |
| 20260506090045 | 53 | 0 | 0.0 | 0.0 | 0.00 | 0.10 | 0.00 | 93 | 1007.0 |
| 20260506084548 | 52 | 0 | 0.0 | 0.0 | 0.00 | 0.10 | 0.00 | 95 | 1007.0 |
| 20260506083040 | 52 | 0 | 0.0 | 0.0 | 0.00 | 0.10 | 0.00 | 94 | 1007.2 |
| 20260506081537 | 53 | 0 | 0.0 | 0.0 | 0.00 | 0.10 | 0.00 | 96 | 1006.6 |
| 20260506073046 | 53 | 0 | 0.0 | 0.0 | 0.00 | 0.10 | 0.00 | 96 | 1006.7 |
| 20260506071557 | 52 | 0 | 0.0 | 0.0 | 0.00 | 0.10 | 0.00 | 96 | 1006.9 |
| 20260506061536 | 51 | 0 | 0.0 | 0.0 | 0.00 | 0.10 | 0.00 | 93 | 1007.6 |
| 20260506044544 | 51 | 0 | 0.0 | 0.0 | 0.00 | 0.10 | 0.00 | 91 | 1008.6 |
| 20260506043043 | 52 | 0 | 0.0 | 0.0 | 0.00 | 0.10 | 0.00 | 92 | 1008.7 |
| 20260506041548 | 52 | 0 | 0.0 | 0.0 | 0.00 | 0.10 | 0.00 | 91 | 1008.9 |
| 20260506040046 | 53 | 0 | 0.0 | 0.0 | 0.00 | 0.10 | 0.00 | 93 | 1009.0 |
| 20260506034545 | 54 | 0 | 0.0 | 0.0 | 0.00 | 0.10 | 0.10 | 93 | 1009.4 |
| 20260506033048 | 54 | 0 | 0.0 | 0.0 | 0.00 | 0.10 | 0.10 | 93 | 1009.1 |
| 20260506031534 | 55 | 0 | 0.0 | 0.0 | 0.00 | 0.10 | 0.10 | 93 | 1009.1 |
| 20260506030036 | 55 | 0 | 0.0 | 0.0 | 0.01 | 0.10 | 0.10 | 93 | 1009.3 |
| 20260506024545 | 56 | 0 | 0.0 | 0.0 | 0.01 | 0.10 | 0.10 | 93 | 1009.1 |
| 20260506023041 | 56 | 0 | 0.0 | 0.0 | 0.01 | 0.10 | 0.10 | 92 | 1008.9 |
| 20260506021538 | 57 | 0 | 0.0 | 0.0 | 0.01 | 0.10 | 0.10 | 90 | 1009.0 |
| 20260506020036 | 58 | 0 | 0.0 | 0.0 | 0.00 | 0.09 | 0.09 | 89 | 1008.7 |
| 20260506014550 | 60 | 0 | 0.0 | 0.0 | 0.00 | 0.09 | 0.09 | 82 | 1008.7 |
| 20260506013043 | 60 | 0 | 0.0 | 0.0 | 0.00 | 0.09 | 0.09 | 81 | 1008.5 |
| 20260506011543 | 61 | 0 | 0.0 | 0.0 | 0.00 | 0.09 | 0.09 | 81 | 1008.5 |
| 20260506010037 | 60 | 0 | 0.0 | 0.0 | 0.00 | 0.09 | 0.09 | 80 | 1008.2 |
| 20260506004542 | 59 | 0 | 0.0 | 0.0 | 0.00 | 0.09 | 0.09 | 86 | 1008.2 |
| 20260506003043 | 59 | 0 | 0.0 | 0.0 | 0.00 | 0.09 | 0.09 | 85 | 1007.9 |
| 20260506001604 | 60 | 0 | 0.0 | 0.0 | 0.00 | 0.09 | 0.09 | 84 | 1007.7 |
| 20260506000045 | 61 | 0 | 0.0 | 0.0 | 0.00 | 0.09 | 0.09 | 80 | 1007.7 |
| 20260505234546 | 61 | 0 | 0.0 | 0.0 | 0.00 | 0.09 | 0.09 | 80 | 1007.7 |
| 20260505233037 | 61 | 0 | 0.0 | 0.0 | 0.00 | 0.09 | 0.09 | 81 | 1007.6 |
| 20260505231548 | 61 | 0 | 0.0 | 0.0 | 0.00 | 0.09 | 0.09 | 82 | 1007.4 |
| 20260505230039 | 60 | 0 | 0.0 | 0.0 | 0.00 | 0.09 | 0.09 | 83 | 1007.5 |
| 20260505224547 | 60 | 0 | 0.0 | 0.0 | 0.00 | 0.09 | 0.09 | 84 | 1007.3 |
| 20260505223046 | 60 | 0 | 0.0 | 0.0 | 0.00 | 0.09 | 0.09 | 83 | 1007.4 |